Temperature
21 20 20 20 19 19 21 22 23 22 21 21 21 21 20 19 19 19 18 18 18 18 18 18 18 18 18 18 18 18 18 18 18 18 18 18 18 18 18 18 18 18 18 18 18 18 18 18 18
21 20 20 20 19 20 21 22 22 22 21 21 21 20 19 18 18 18 18 18 18 18 18 18 18 18 18 18 18 18 18 18 18 18 18 18 18 18 18 18 18 18 18 18 18 18 18 18 18
21 20 20 19 20 20 22 23 22 22 22 22 21 20 19 18 18 19 19 18 18 18 18 18 18 18 18 18 18 18 18 18 18 18 18 18 18 18 18 18 18 18 18 18 18 18 18 18 18
21 20 20 20 22 22 23 23 22 22 22 22 20 19 19 19 19 19 19 18 18 18 18 18 18 18 18 18 18 18 18 18 18 18 18 18 18 18 18 18 18 18 18 18 18 18 18 18 18
21 21 20 21 22 23 23 23 23 22 22 21 20 19 18 19 19 19 19 19 19 18 18 18 18 18 18 18 18 18 18 18 18 18 18 18 18 18 18 18 18 18 18 18 18 18 18 17 17
21 20 20 21 23 24 24 24 23 22 21 21 20 19 18 19 19 19 19 19 19 18 18 18 18 18 18 18 18 18 18 18 18 18 18 18 18 18 18 18 18 18 18 18 18 18 18 17 17
21 20 21 22 23 24 24 24 23 22 21 21 20 18 18 18 19 19 19 19 18 18 18 18 18 18 18 18 18 18 18 18 18 18 18 18 18 18 18 18 18 18 18 18 18 18 18 17 17
22 20 22 22 24 24 24 24 24 23 22 21 21 19 18 19 19 19 19 18 18 18 18 18 18 18 18 18 18 18 18 18 18 18 18 18 18 18 18 18 18 18 18 18 18 18 18 17 17
22 20 21 23 24 25 24 24 24 23 22 21 21 21 21 19 19 19 18 18 18 18 18 18 18 18 18 18 18 18 18 18 18 18 18 18 18 18 18 18 18 18 18 18 18 18 18 18 17
22 20 23 24 25 25 25 24 24 23 22 21 20 20 20 19 19 19 19 18 18 18 18 18 18 18 18 18 18 18 18 18 18 18 18 18 18 18 18 18 18 18 18 18 18 18 18 17 17
22 22 23 25 26 26 25 25 24 22 21 21 21 20 20 19 19 19 19 19 19 19 19 18 18 18 18 18 18 18 18 18 18 18 18 18 18 18 18 18 18 18 18 18 18 18 17 17 17
22 23 25 26 27 26 25 25 24 23 23 24 23 22 20 19 19 19 19 19 19 19 19 19 18 18 18 18 18 18 18 18 18 18 18 18 18 18 18 18 18 18 18 18 18 17 17 17 17
24 25 26 27 26 26 25 24 24 23 24 24 22 21 20 20 20 20 20 20 19 19 19 19 19 19 18 18 18 18 18 18 18 18 18 18 18 18 18 18 18 18 18 18 18 18 18 17 17
25 25 25 26 26 26 25 24 24 23 23 23 21 21 21 20 20 20 20 20 19 19 19 19 19 19 18 18 18 18 18 18 18 18 18 18 18 18 18 18 18 18 18 18 18 18 18 18 18
26 25 25 25 26 25 25 24 23 23 22 21 20 20 20 20 20 20 20 20 20 20 19 19 19 19 18 18 18 18 18 18 18 18 18 18 18 18 18 18 18 18 18 18 18 18 17 17 18
25 24 24 25 25 25 25 24 23 23 22 20 20 20 20 20 20 21 20 20 20 20 20 19 19 19 19 19 18 18 18 18 18 18 18 18 18 18 18 18 18 18 18 18 18 18 18 18 18
23 23 24 25 25 25 24 23 23 22 21 20 20 20 20 20 20 21 21 21 20 20 20 20 19 19 19 19 19 18 18 18 18 18 18 18 18 18 18 18 18 18 18 18 18 18 18 18 18
24 24 24 24 25 24 23 22 22 21 21 21 20 20 20 20 21 21 21 21 20 20 20 20 19 19 19 19 18 18 18 18 18 18 18 18 18 18 18 18 18 18 18 18 18 18 18 18 18
24 24 24 24 24 23 23 22 22 21 21 21 20 20 20 21 21 21 21 21 20 20 20 20 20 19 19 19 19 18 18 18 18 18 18 18 18 18 18 18 18 18 18 18 18 18 18 18 18
24 24 23 24 24 24 22 22 22 21 21 21 21 21 21 21 21 21 21 21 21 21 20 20 20 20 20 19 19 19 19 19 19 18 18 18 18 18 18 18 18 18 18 18 18 18 18 18 18
23 23 24 24 23 23 23 22 22 21 22 22 21 21 21 21 21 21 21 21 21 21 21 21 20 20 20 19 19 19 19 19 19 19 19 18 18 18 18 18 18 18 18 18 18 18 18 17 17
23 24 24 24 23 21 23 21 21 21 21 21 21 21 21 22 22 22 22 22 22 21 21 21 21 20 20 20 19 19 19 19 19 19 19 19 19 18 18 18 18 18 18 18 18 18 17 17 17
24 24 23 23 22 21 21 21 20 20 20 21 21 22 22 22 22 22 22 22 22 22 22 21 21 21 20 20 20 19 19 19 19 19 19 19 19 19 18 18 18 18 18 18 18 17 17 17 17
24 22 21 19 19 20 21 21 20 19 20 21 21 22 22 22 22 22 22 22 22 22 22 21 21 21 21 20 20 20 20 19 19 19 19 19 19 19 19 18 18 18 18 18 18 17 17 17 17
23 21 20 21 19 20 20 20 20 21 21 21 21 22 23 23 23 22 22 22 22 22 22 22 21 21 21 20 20 20 20 20 19 19 19 19 19 19 19 19 18 18 18 18 18 18 17 17 17
22 21 20 21 20 19 20 20 20 21 21 22 22 22 22 22 22 22 22 22 22 22 22 22 21 21 21 21 20 20 20 20 20 19 19 19 19 19 19 19 18 18 18 18 18 18 17 17 17
22 20 20 18 19 19 19 19 20 21 21 21 21 22 22 22 22 23 22 22 22 22 22 22 22 21 21 21 21 20 20 20 20 20 19 19 19 19 19 19 18 18 18 18 18 17 17 17 17
21 18 17 18 19 19 20 20 20 21 21 20 20 20 21 22 22 22 22 22 22 22 22 22 22 22 21 21 20 20 20 20 20 19 19 19 19 19 19 19 18 18 18 18 18 17 17 17 17
21 19 17 16 17 18 19 20 20 20 20 19 20 21 21 22 22 23 22 22 22 22 22 22 21 21 21 21 20 20 20 20 20 19 19 19 19 19 19 18 18 18 18 18 18 18 17 17 17
21 20 17 19 18 16 18 19 21 19 19 19 20 21 21 22 22 22 22 22 22 21 21 21 21 21 21 20 20 20 20 20 19 19 19 19 19 19 18 18 18 18 18 18 18 17 17 17 17
Wind_Speed
9 7 3 1 3 4 2 2 1 3 3 3 5 6 6 4 2 3 1 5 7 7 9 13 15 17 18 19 20 20 20 19 19 19 19 18 18 17 17 16 15 15 15 15 14 14 13 13 13
6 4 1 2 4 3 3 2 2 3 6 6 6 6 6 5 4 5 4 4 8 9 10 13 16 17 18 19 18 18 19 18 18 18 18 17 17 16 16 15 14 14 13 13 13 13 12 12 12
5 2 1 3 3 2 1 0 4 5 5 3 4 5 4 4 5 4 4 8 9 8 10 14 17 17 18 18 17 17 17 17 17 17 16 16 15 15 14 14 13 12 12 12 11 11 11 11 10
3 1 2 4 2 2 3 4 6 7 4 5 5 5 4 3 4 5 9 10 10 8 10 13 17 17 17 16 16 15 15 15 15 15 15 14 14 13 12 12 11 10 10 10 10 10 10 9 9
1 3 4 4 3 1 2 6 6 5 3 4 4 5 4 3 8 11 10 10 10 7 8 12 16 16 16 15 16 15 14 14 14 13 13 13 12 11 11 10 10 9 9 9 9 9 8 8 7
3 3 4 2 3 2 3 5 5 5 5 5 5 5 3 4 9 10 9 8 8 8 8 11 14 15 15 15 15 14 13 13 12 12 12 11 11 10 9 9 8 8 8 7 7 7 7 6 5
3 3 1 1 1 0 3 4 5 6 5 5 6 6 3 4 7 9 8 8 7 7 6 7 9 12 13 13 14 13 13 12 11 11 11 10 10 9 9 8 8 7 7 6 6 6 5 4 3
3 3 2 1 2 2 4 4 4 7 5 7 5 7 6 7 9 9 9 7 7 6 5 4 6 8 9 10 12 12 12 11 10 10 10 9 9 9 8 7 7 6 6 6 5 4 4 3 3
2 4 1 4 4 3 5 4 3 5 7 4 4 5 8 15 13 11 8 6 6 6 4 4 5 6 7 7 9 10 10 10 9 8 8 7 5 5 6 6 6 5 5 5 5 4 3 2 2
3 2 6 5 4 4 5 5 7 5 5 4 6 8 15 16 14 13 11 10 8 7 5 4 5 5 5 6 5 5 5 6 6 5 5 5 5 4 4 4 5 4 4 4 4 3 2 2 2
5 5 4 4 4 5 5 5 5 9 5 7 11 17 18 16 14 13 12 10 9 8 7 6 5 5 5 3 4 3 4 4 4 4 4 4 3 2 1 1 1 1 1 1 1 0 0 1 2
4 6 4 3 2 5 6 5 5 6 6 8 16 20 20 17 15 14 13 10 8 8 8 6 6 5 4 4 3 3 3 3 3 4 5 4 2 1 1 1 1 1 1 1 0 0 1 1 2
4 3 2 2 1 4 5 4 4 3 4 12 17 18 18 17 14 12 10 9 8 9 8 7 7 6 5 4 3 4 3 3 4 4 5 5 3 2 2 2 2 2 2 2 1 1 1 1 2
3 2 3 2 3 3 5 2 3 3 10 15 17 17 16 16 14 11 10 10 10 10 9 8 7 6 5 4 4 3 4 4 4 5 6 6 5 4 3 2 2 2 3 3 2 2 2 2 2
1 3 6 4 3 2 6 2 2 5 13 15 14 14 14 13 12 13 13 11 11 10 9 9 8 7 7 6 5 4 5 5 4 5 7 7 7 6 4 2 2 3 3 2 2 1 1 1 2
4 4 3 4 2 2 6 4 3 9 13 13 13 13 12 12 12 12 11 10 10 9 9 9 9 8 7 6 5 4 5 5 5 5 6 7 7 7 4 3 3 3 2 2 1 1 1 1 1
5 2 2 3 1 3 3 4 1 9 11 11 11 11 11 10 10 11 11 11 10 10 9 9 8 8 8 7 5 4 4 4 4 5 5 6 6 7 5 3 3 3 2 1 1 1 1 1 1
3 1 2 3 2 3 2 2 1 7 10 10 10 10 11 12 13 10 10 10 10 9 9 9 8 7 6 5 3 2 2 2 3 4 5 6 6 6 6 3 3 3 2 1 1 1 1 1 1
4 3 4 5 3 2 2 3 3 7 8 8 9 10 11 12 10 9 9 9 9 9 10 10 9 8 6 4 4 4 3 3 3 4 6 6 6 6 5 3 3 3 2 2 3 2 1 1 1
4 3 4 4 0 3 2 3 3 7 11 11 11 11 11 9 8 9 10 10 11 11 11 10 11 10 8 6 5 4 3 3 3 3 3 6 6 6 5 4 3 3 3 2 3 2 2 1 1
4 5 5 4 2 3 2 4 2 2 5 6 8 8 9 11 11 12 12 12 12 12 12 12 11 10 9 8 4 3 2 1 1 2 3 4 6 6 6 5 4 4 4 4 4 3 3 2 1
5 6 6 3 2 2 1 2 6 3 4 7 9 10 11 10 10 11 11 12 13 13 11 10 10 9 8 8 7 7 6 5 5 4 4 3 5 6 6 6 5 5 4 4 4 4 3 3 2
6 1 2 2 4 1 1 2 7 2 5 9 10 12 12 12 12 12 13 13 12 12 11 10 9 9 9 9 10 8 7 6 4 3 3 4 4 5 6 6 5 5 4 4 4 4 4 4 3
3 6 7 6 5 0 3 4 6 4 6 6 8 10 11 11 11 11 10 9 9 9 10 9 10 10 10 10 10 10 9 7 6 5 5 4 3 3 4 5 5 5 5 5 5 5 5 4 4
6 7 4 4 3 5 3 3 7 7 7 7 8 8 9 9 11 10 10 10 10 10 11 10 10 10 9 10 11 11 10 9 9 8 7 5 4 4 5 5 4 5 5 5 5 4 4 5 5
4 8 8 5 5 4 1 5 7 6 5 5 5 4 4 6 9 10 11 11 11 11 12 12 12 11 10 11 10 9 9 8 7 8 6 6 6 6 5 5 5 5 5 5 4 4 5 4 5
6 4 6 7 3 1 4 6 8 4 3 3 3 1 2 5 7 9 10 11 11 11 12 12 12 11 10 11 9 9 9 9 8 7 7 5 5 5 5 5 5 5 5 5 5 5 5 5 5
5 8 6 6 6 4 4 4 5 6 6 5 3 3 3 3 4 5 7 9 10 11 11 11 11 11 9 9 10 9 9 9 8 7 7 6 6 5 5 5 6 6 5 5 6 5 5 5 5
3 4 5 5 5 6 4 7 6 8 7 6 6 5 5 4 5 5 6 7 8 8 8 9 9 9 8 9 9 8 8 8 8 8 7 7 6 6 6 6 6 6 6 6 6 6 6 6 6
3 5 7 5 4 4 5 7 5 5 5 5 5 4 3 3 3 2 3 4 5 7 7 8 8 8 8 8 8 8 7 7 8 7 7 6 6 6 6 6 6 7 6 6 7 6 6 7 6
Wind_Direction
155 146 146 138 53 46 12 326 110 89 67 59 76 82 94 83 106 139 117 136 125 127 131 130 128 127 125 124 122 123 123 124 124 123 122 122 122 121 121 118 117 117 116 115 114 112 110 108 107
149 160 175 61 70 51 332 323 92 96 133 129 84 74 75 69 70 104 124 138 125 125 127 131 130 128 127 126 125 125 126 126 126 125 124 123 123 123 123 121 120 119 118 118 118 117 114 111 110
169 198 82 60 76 157 218 139 115 105 122 110 83 65 76 98 115 131 148 135 117 118 128 137 133 132 130 130 128 127 127 128 128 128 127 126 125 124 124 123 122 121 120 120 121 120 117 114 112
165 72 49 56 29 234 190 162 135 126 86 63 93 76 68 84 126 134 134 130 120 121 133 140 137 136 134 131 129 130 130 130 130 129 129 128 127 127 127 127 126 123 124 126 126 123 120 117 114
105 74 46 23 329 300 148 145 138 121 93 77 90 88 59 43 105 122 130 130 127 126 135 141 139 138 138 134 133 134 134 134 133 132 131 131 131 133 131 130 130 129 128 129 129 124 122 120 116
60 61 59 359 331 18 111 135 125 102 102 102 99 97 72 103 121 132 130 127 129 131 132 139 142 143 141 139 139 140 140 139 140 138 137 137 138 139 139 138 138 137 136 134 133 129 128 126 119
95 77 91 252 296 327 164 138 134 125 121 132 125 105 107 133 133 129 120 116 118 121 123 133 144 146 145 143 145 146 145 147 148 147 145 147 148 147 147 147 148 146 143 141 139 137 136 138 130
129 88 30 264 201 232 159 130 131 131 122 127 125 137 162 164 134 118 109 108 113 115 121 127 134 137 142 147 151 151 151 153 154 153 151 152 155 155 155 154 156 156 154 153 154 156 159 156 152
116 69 233 225 204 213 153 130 123 105 119 129 126 144 149 140 134 126 122 120 133 142 131 127 127 128 135 146 157 158 157 157 157 156 156 149 137 145 156 164 171 173 171 171 174 180 181 170 164
118 155 228 222 198 177 167 146 143 123 132 124 97 108 130 142 147 150 154 157 162 166 163 149 142 137 140 154 148 144 147 150 148 145 141 135 136 150 168 183 194 196 194 196 196 196 190 166 152
168 205 246 254 211 156 154 144 136 138 182 187 159 148 149 155 160 166 169 169 174 172 172 165 157 151 150 146 145 142 138 141 145 151 146 141 138 152 166 198 234 230 221 211 216 223 117 162 182
192 241 240 266 178 145 156 147 141 173 207 169 156 153 157 165 172 176 177 177 172 170 178 171 163 161 166 161 156 154 155 158 164 170 166 158 153 163 178 198 226 239 218 187 196 187 231 228 232
216 268 272 269 112 143 134 143 156 182 125 132 143 153 164 172 179 182 179 175 174 179 182 178 172 175 173 165 177 174 180 186 189 188 189 185 184 198 202 217 229 235 220 202 208 216 229 245 250
247 288 326 358 66 120 120 99 112 160 133 138 152 164 173 179 181 179 179 181 185 189 188 181 180 180 172 175 183 186 188 193 193 203 208 202 200 201 203 223 236 240 228 217 217 231 232 248 244
358 12 12 24 63 108 106 51 221 156 143 150 163 172 178 185 186 189 189 188 190 191 187 185 187 182 179 184 192 192 193 193 200 213 216 211 207 203 199 208 228 237 232 227 229 245 234 254 248
39 48 15 329 43 98 123 234 245 151 153 162 172 178 185 192 195 197 193 190 188 186 186 192 195 186 187 189 191 192 192 193 204 213 214 215 212 205 194 201 224 226 211 199 211 228 233 262 254
34 36 299 317 15 107 125 242 247 159 160 171 179 185 189 196 202 200 194 191 187 185 183 186 192 185 188 187 184 190 187 195 206 210 212 215 212 204 194 204 216 204 188 197 219 192 191 237 250
238 227 260 258 277 94 128 252 156 164 167 177 184 189 192 201 207 200 195 190 183 181 180 184 189 187 178 170 167 177 186 206 207 210 215 211 206 200 191 201 209 189 184 203 192 191 190 219 239
176 193 247 249 227 140 192 228 209 177 176 184 188 191 199 208 203 191 190 187 181 180 180 184 188 185 170 167 177 184 202 206 209 216 218 211 206 200 190 197 185 181 190 205 194 183 185 200 123
176 211 261 290 182 160 188 255 221 184 195 197 195 197 202 199 189 189 186 186 189 189 190 191 194 187 182 185 180 180 181 192 201 214 209 208 203 200 199 193 193 189 186 194 191 176 167 184 144
219 202 231 241 4 40 72 332 276 219 208 209 209 206 203 200 199 195 192 193 191 193 196 200 199 194 189 181 161 155 135 135 186 207 212 209 202 202 201 196 193 193 190 200 198 182 178 197 199
247 225 209 201 131 275 121 266 292 252 237 225 219 210 210 208 203 199 196 196 197 198 196 196 194 194 190 180 179 182 192 202 208 204 207 212 206 205 203 198 195 196 197 202 206 191 189 180 203
218 209 153 147 142 81 35 158 286 289 257 246 233 221 215 209 202 199 199 198 198 194 193 195 193 196 190 187 190 192 203 207 200 196 206 216 217 212 207 200 196 200 203 207 206 192 192 192 197
147 72 51 50 77 284 236 170 273 244 233 251 238 227 216 206 201 200 199 190 192 187 189 190 193 202 195 193 195 197 200 196 194 203 209 215 215 218 216 206 202 203 205 207 211 204 199 203 205
93 91 34 1 9 251 252 179 245 249 241 238 239 230 216 200 194 192 190 190 191 189 190 190 193 203 199 198 201 202 201 198 203 205 208 210 212 218 219 213 209 209 209 207 203 202 207 206 207
166 143 160 194 218 266 298 225 252 262 267 263 246 229 203 192 192 190 192 193 193 193 192 192 197 202 199 201 206 204 201 203 210 210 206 210 215 220 212 206 213 216 211 209 201 212 215 211 216
141 168 167 143 154 199 271 278 298 287 284 279 274 241 208 205 199 196 192 192 192 193 195 195 197 200 201 204 203 204 203 205 209 208 207 209 211 215 209 206 213 219 215 207 200 219 221 216 221
139 143 104 127 155 220 271 262 247 266 261 263 260 244 235 224 213 206 198 197 196 195 196 193 194 198 200 200 203 208 205 206 206 204 207 205 208 210 198 200 211 218 215 208 208 216 221 224 231
98 99 107 121 152 163 223 260 230 231 238 234 238 238 234 224 217 212 204 200 195 190 187 191 195 194 195 199 201 204 204 204 202 204 208 207 205 203 206 209 211 217 219 213 209 216 216 223 234
156 156 146 154 211 179 182 255 275 239 239 229 240 249 242 221 219 207 184 177 182 183 183 188 192 194 197 195 196 201 200 197 201 207 210 207 206 208 212 210 212 219 220 213 213 219 219 220 228
Height
1484 1485 1486 1488 1490 1498 1499 1492 1487 1487 1489 1490 1490 1491 1494 1497 1501 1506 1503 1502 1504 1505 1507 1509 1510 1512 1514 1516 1519 1521 1523 1525 1528 1530 1532 1534 1536 1538 1539 1541 1543 1544 1546 1547 1548 1549 1551 1552 1553
1485 1486 1488 1488 1496 1509 1502 1490 1488 1488 1489 1490 1491 1493 1495 1498 1499 1500 1501 1503 1505 1507 1509 1511 1513 1515 1517 1519 1521 1524 1526 1528 1530 1532 1534 1536 1538 1540 1542 1543 1545 1546 1548 1549 1550 1551 1552 1553 1554
1486 1487 1489 1490 1499 1505 1499 1490 1488 1488 1490 1491 1493 1495 1497 1499 1500 1501 1503 1504 1507 1509 1511 1513 1515 1517 1520 1522 1524 1526 1528 1531 1533 1535 1537 1538 1540 1542 1544 1545 1547 1548 1549 1550 1551 1553 1554 1555 1556
1487 1489 1490 1495 1498 1494 1490 1488 1488 1489 1491 1492 1494 1498 1500 1502 1502 1503 1504 1507 1509 1511 1514 1516 1518 1520 1522 1524 1526 1529 1531 1533 1535 1537 1539 1540 1542 1544 1545 1547 1548 1550 1551 1552 1553 1554 1555 1556 1557
1488 1489 1494 1500 1496 1489 1486 1487 1488 1490 1492 1494 1495 1499 1502 1504 1504 1505 1506 1509 1511 1513 1516 1518 1520 1523 1525 1527 1529 1531 1533 1535 1537 1539 1540 1542 1544 1545 1547 1548 1549 1551 1552 1553 1554 1555 1556 1557 1558
1489 1490 1503 1506 1496 1488 1487 1488 1489 1491 1493 1495 1497 1500 1504 1505 1506 1507 1509 1511 1513 1516 1518 1520 1522 1525 1527 1529 1531 1533 1535 1537 1539 1541 1542 1544 1545 1546 1548 1549 1551 1552 1553 1554 1555 1556 1557 1558 1559
1491 1495 1501 1500 1497 1491 1488 1488 1490 1492 1494 1496 1498 1501 1504 1506 1508 1510 1511 1513 1516 1518 1520 1522 1524 1527 1529 1531 1533 1535 1537 1539 1541 1542 1544 1545 1546 1548 1549 1550 1552 1553 1554 1555 1556 1558 1558 1559 1560
1490 1495 1499 1499 1496 1492 1487 1488 1490 1492 1495 1497 1498 1500 1503 1506 1509 1511 1513 1515 1518 1520 1522 1524 1526 1528 1530 1533 1535 1537 1539 1541 1542 1544 1545 1546 1548 1549 1550 1552 1553 1554 1555 1556 1557 1558 1559 1560 1561
1491 1499 1503 1496 1492 1489 1486 1488 1491 1492 1494 1497 1498 1500 1502 1506 1509 1512 1514 1517 1519 1522 1524 1526 1528 1530 1532 1534 1536 1539 1540 1542 1544 1545 1546 1548 1549 1550 1551 1553 1554 1555 1556 1557 1558 1559 1560 1561 1562
1491 1501 1494 1486 1484 1484 1485 1487 1490 1493 1495 1497 1498 1500 1503 1506 1509 1512 1514 1517 1519 1522 1525 1527 1529 1531 1533 1535 1538 1540 1541 1543 1545 1546 1548 1549 1550 1551 1552 1554 1555 1556 1557 1558 1559 1560 1561 1561 1562
1490 1492 1485 1482 1481 1482 1485 1487 1489 1492 1495 1494 1495 1498 1503 1506 1509 1512 1515 1517 1520 1523 1526 1528 1530 1533 1535 1537 1539 1541 1542 1544 1546 1547 1549 1550 1551 1552 1553 1554 1555 1556 1557 1558 1559 1560 1561 1562 1562
1488 1485 1483 1480 1479 1482 1484 1487 1489 1490 1490 1491 1494 1497 1501 1505 1509 1511 1514 1518 1521 1523 1526 1529 1531 1533 1535 1538 1540 1541 1543 1545 1547 1548 1549 1551 1552 1553 1554 1555 1556 1556 1557 1558 1559 1560 1561 1562 1562
1485 1483 1480 1479 1479 1481 1484 1486 1488 1490 1490 1492 1496 1500 1503 1506 1509 1513 1516 1519 1521 1524 1526 1529 1531 1534 1536 1538 1540 1542 1544 1546 1547 1549 1550 1551 1552 1553 1554 1555 1556 1557 1557 1558 1559 1560 1561 1561 1562
1483 1481 1480 1480 1480 1482 1485 1487 1489 1490 1491 1493 1496 1500 1503 1506 1509 1513 1516 1518 1521 1524 1527 1529 1532 1534 1536 1538 1540 1543 1544 1546 1548 1549 1550 1551 1553 1554 1555 1556 1556 1557 1557 1558 1559 1559 1560 1561 1561
1482 1483 1483 1482 1482 1484 1486 1491 1490 1490 1492 1495 1498 1501 1504 1507 1510 1512 1515 1518 1521 1524 1527 1529 1532 1534 1536 1538 1541 1543 1544 1546 1547 1549 1550 1551 1552 1554 1555 1555 1556 1557 1557 1558 1558 1559 1559 1560 1560
1484 1490 1495 1487 1484 1485 1491 1499 1490 1491 1493 1495 1499 1502 1505 1507 1510 1512 1515 1518 1521 1524 1527 1530 1532 1534 1536 1538 1540 1542 1544 1546 1547 1549 1550 1551 1552 1553 1554 1555 1556 1556 1557 1557 1558 1558 1559 1559 1560
1495 1502 1499 1493 1486 1486 1491 1497 1491 1491 1493 1496 1499 1502 1505 1507 1509 1512 1515 1518 1521 1524 1526 1529 1531 1534 1536 1538 1540 1542 1543 1545 1546 1548 1549 1550 1551 1552 1553 1554 1555 1556 1556 1557 1557 1557 1558 1558 1559
1502 1501 1499 1497 1489 1489 1493 1495 1491 1492 1493 1495 1498 1501 1503 1505 1507 1511 1514 1517 1520 1523 1525 1528 1530 1533 1535 1537 1539 1541 1542 1544 1545 1546 1548 1549 1550 1551 1552 1553 1554 1554 1555 1556 1556 1556 1557 1557 1558
1492 1496 1499 1494 1486 1490 1494 1494 1492 1492 1493 1495 1496 1498 1500 1502 1506 1509 1513 1516 1518 1521 1524 1526 1529 1531 1533 1536 1537 1539 1540 1542 1544 1545 1546 1548 1549 1550 1551 1552 1552 1553 1554 1554 1555 1555 1556 1556 1557
1491 1497 1497 1491 1486 1490 1494 1494 1490 1490 1490 1491 1493 1495 1497 1500 1503 1506 1509 1513 1516 1518 1521 1524 1526 1529 1531 1534 1536 1538 1539 1541 1542 1544 1545 1546 1548 1549 1550 1550 1551 1552 1552 1553 1553 1554 1554 1555 1556
1491 1495 1494 1494 1490 1490 1494 1498 1493 1490 1490 1492 1493 1494 1495 1497 1499 1502 1505 1509 1512 1515 1518 1521 1524 1526 1529 1532 1534 1536 1538 1539 1541 1542 1543 1545 1546 1547 1548 1549 1550 1550 1551 1551 1552 1552 1553 1554 1554
1494 1484 1485 1489 1498 1505 1500 1515 1498 1492 1490 1489 1488 1490 1491 1493 1496 1499 1502 1505 1508 1511 1515 1519 1521 1524 1527 1530 1532 1533 1535 1536 1538 1540 1541 1543 1544 1545 1546 1547 1548 1548 1549 1549 1550 1551 1551 1552 1552
1483 1479 1483 1488 1498 1507 1506 1513 1506 1493 1492 1486 1483 1484 1486 1489 1491 1494 1497 1500 1504 1508 1512 1515 1519 1521 1524 1527 1529 1531 1532 1534 1536 1538 1539 1540 1542 1543 1544 1544 1545 1546 1547 1547 1548 1549 1549 1550 1550
1477 1483 1491 1499 1506 1519 1508 1513 1510 1497 1489 1482 1479 1479 1481 1484 1487 1490 1494 1498 1501 1505 1508 1512 1515 1518 1520 1523 1525 1527 1529 1531 1533 1534 1536 1537 1539 1540 1541 1542 1543 1543 1544 1545 1545 1546 1547 1547 1548
1481 1498 1517 1519 1527 1523 1507 1509 1504 1484 1479 1477 1476 1475 1477 1480 1483 1486 1490 1493 1496 1500 1504 1507 1510 1513 1516 1519 1521 1524 1526 1528 1529 1531 1533 1534 1535 1537 1538 1539 1540 1540 1541 1542 1543 1543 1543 1544 1545
1484 1493 1516 1526 1528 1521 1509 1510 1493 1477 1474 1473 1473 1473 1474 1477 1479 1481 1484 1487 1491 1495 1499 1502 1505 1509 1512 1514 1517 1520 1522 1524 1526 1527 1529 1530 1532 1533 1534 1535 1536 1537 1538 1539 1539 1539 1540 1541 1541
1484 1492 1492 1510 1516 1521 1516 1504 1487 1475 1474 1472 1471 1471 1472 1474 1475 1477 1480 1483 1487 1490 1494 1497 1500 1504 1507 1510 1513 1515 1517 1519 1521 1523 1525 1526 1527 1529 1530 1531 1532 1533 1534 1535 1535 1536 1537 1538 1538
1475 1485 1500 1512 1524 1526 1515 1507 1498 1481 1475 1472 1471 1470 1470 1471 1473 1475 1477 1479 1483 1486 1490 1493 1496 1499 1502 1505 1508 1510 1512 1514 1517 1519 1520 1522 1523 1525 1526 1527 1529 1530 1530 1531 1532 1533 1533 1534 1535
1481 1488 1497 1509 1511 1521 1523 1509 1479 1476 1472 1471 1469 1469 1469 1470 1471 1472 1474 1476 1479 1483 1486 1489 1492 1495 1498 1501 1503 1505 1507 1509 1512 1514 1516 1518 1519 1521 1522 1523 1525 1526 1526 1527 1528 1529 1530 1530 1531
1474 1481 1492 1502 1508 1513 1514 1503 1470 1469 1468 1468 1468 1468 1468 1469 1469 1470 1472 1474 1477 1479 1482 1485 1488 1490 1493 1496 1498 1500 1503 1505 1507 1509 1511 1513 1515 1516 1518 1519 1520 1521 1522 1524 1524 1525 1525 1526 1527